Temp
14 14 15 15 15 15 15 16 16 16 17 17 18 18 18 19 19 19 20 20 20 20 20 20 20 20 21 20 20 20 13 15 18 17 19 20 19 20 20 20 19 18 18 18 16
14 14 14 15 15 15 15 16 16 16 16 17 17 18 18 19 19 19 19 19 20 20 20 20 20 20 20 20 20 17 12 18 18 17 17 19 20 20 20 18 17 17 17 17 16
14 14 14 14 15 15 15 15 16 16 16 17 17 17 18 19 19 19 19 19 19 19 19 20 20 20 20 20 19 17 15 18 18 19 19 19 20 20 19 17 19 18 18 17 16
14 14 14 14 14 15 15 15 16 16 16 17 17 17 18 18 18 19 19 19 19 19 19 19 19 20 18 18 19 18 18 19 18 19 19 19 19 19 19 20 20 20 19 18 17
14 14 14 14 14 14 15 15 15 15 16 16 17 17 18 18 18 18 19 19 19 18 19 19 19 19 17 18 18 17 18 19 18 18 19 19 18 18 19 19 20 19 18 17 17
14 14 14 14 14 15 15 15 15 15 15 16 16 17 17 16 18 18 18 19 19 19 19 19 19 19 19 18 17 17 17 18 18 18 18 17 17 18 18 18 18 18 17 17 16
13 13 14 14 15 15 15 15 15 15 15 15 16 16 16 17 18 18 18 18 18 18 19 18 19 19 18 17 17 17 17 16 16 17 17 17 15 14 19 16 17 16 16 16 16
13 13 13 13 14 14 14 14 15 15 15 15 15 15 16 17 17 17 17 17 18 18 18 18 18 18 18 17 17 16 15 15 16 15 17 16 14 16 17 16 15 15 15 15 16
11 12 13 13 13 14 14 14 14 15 15 15 15 14 16 16 16 16 16 16 17 17 17 17 18 17 17 13 12 12 13 13 15 14 14 14 15 16 15 15 15 15 15 15 15
10 11 11 12 13 13 13 13 13 14 14 14 14 14 15 15 15 15 15 15 16 16 16 16 16 11 10 11 12 13 13 13 15 15 14 13 12 13 14 14 15 15 15 15 15
10 10 10 10 12 13 13 13 13 13 13 16 16 15 15 15 15 14 14 14 15 15 13 15 11 11 12 12 14 14 13 15 15 15 14 12 12 13 15 13 13 14 15 15 15
10 11 9 10 11 12 12 12 13 13 12 15 14 14 15 15 14 14 14 14 14 12 12 11 11 12 12 12 13 13 13 12 13 14 13 13 12 12 13 14 15 16 16 16 15
9 10 9 10 9 11 11 12 13 12 11 13 15 15 15 15 15 14 14 14 12 11 10 10 14 13 13 13 13 12 12 12 14 14 13 13 11 12 13 14 16 17 18 17 17
9 9 9 8 8 10 11 12 12 12 9 10 12 14 14 15 13 15 15 15 12 11 11 11 13 14 12 12 13 12 12 14 14 14 11 12 12 12 13 12 12 16 16 16 15
8 9 8 9 8 9 11 11 11 12 8 12 11 12 12 14 13 11 14 14 11 11 12 12 11 12 12 13 13 13 13 13 13 11 11 11 9 10 12 12 13 16 16 17 15
7 7 8 8 8 8 9 9 9 9 9 12 10 10 11 12 11 10 11 13 13 12 12 12 13 12 13 12 13 11 12 10 8 9 9 11 11 11 12 14 13 14 16 17 16
6 6 7 7 7 8 7 8 5 6 9 10 9 9 10 9 9 10 9 10 11 11 11 12 12 12 12 12 12 12 11 10 9 7 10 9 8 14 13 12 13 14 17 16 15
5 6 6 7 7 8 6 5 6 7 8 10 8 8 9 10 9 9 8 10 10 11 10 11 11 10 10 12 11 10 11 9 10 8 9 9 8 11 11 14 13 15 15 14 13
4 6 6 7 7 7 6 5 9 7 9 9 9 9 8 9 9 9 7 9 10 9 13 9 10 10 10 11 13 10 10 12 10 -0 5 9 10 11 9 10 11 12 11 11 11
3 4 6 6 7 7 6 7 7 8 10 11 12 10 8 8 9 7 7 8 11 10 12 12 11 9 10 12 11 11 10 9 6 7 7 9 9 12 12 11 11 9 9 9 10
3 3 6 8 6 7 6 5 7 9 11 10 11 11 11 8 9 7 9 10 10 9 12 13 12 9 9 9 9 9 9 10 10 7 8 7 11 9 13 12 11 10 14 12 10
2 4 6 7 6 7 8 8 8 8 9 9 11 11 10 10 9 8 9 10 11 10 10 11 11 7 8 9 8 10 11 9 9 8 6 7 14 11 12 11 11 14 16 13 12
2 4 5 6 7 7 8 8 9 8 9 8 9 9 11 10 10 9 8 10 11 10 9 11 9 7 8 8 8 8 9 12 10 6 11 9 14 8 9 11 13 13 17 15 10
2 2 4 5 6 7 7 8 8 9 9 9 10 10 10 11 11 9 8 10 12 11 13 13 9 10 12 12 8 8 8 9 12 11 11 11 14 12 12 12 12 13 15 14 12
1 2 4 4 4 6 6 8 8 8 8 9 9 10 10 10 9 10 10 9 10 10 10 12 9 11 12 11 10 9 10 9 10 12 11 14 13 15 13 11 12 16 15 13 11
0 2 3 4 4 5 6 6 4 9 9 8 8 9 10 10 11 10 10 10 10 8 10 9 10 10 9 10 8 10 8 9 10 11 11 12 12 13 14 15 12 14 15 13 13
-1 0 1 4 4 4 4 6 6 6 5 7 8 8 9 9 10 12 12 11 10 10 9 7 9 8 9 9 7 8 10 9 9 11 11 10 13 9 11 11 12 13 13 14 15
Height
1536 1537 1538 1540 1539 1539 1540 1540 1540 1541 1540 1540 1540 1539 1539 1539 1539 1539 1539 1540 1540 1540 1540 1540 1540 1540 1540 1541 1543 1544 1559 1566 1557 1560 1553 1551 1552 1555 1555 1556 1558 1559 1560 1561 1564
1537 1538 1538 1539 1539 1539 1540 1540 1540 1540 1540 1539 1539 1538 1538 1538 1538 1538 1539 1538 1538 1539 1540 1541 1541 1541 1541 1543 1544 1545 1562 1554 1551 1551 1551 1549 1550 1552 1555 1556 1558 1559 1560 1561 1563
1537 1537 1538 1539 1538 1539 1539 1540 1540 1540 1540 1539 1539 1538 1537 1537 1538 1538 1537 1537 1537 1538 1539 1541 1541 1541 1542 1544 1545 1547 1556 1549 1550 1549 1548 1549 1550 1551 1552 1556 1554 1555 1557 1559 1561
1536 1537 1537 1538 1538 1539 1539 1539 1539 1539 1539 1539 1538 1537 1536 1536 1542 1537 1537 1536 1537 1538 1539 1541 1542 1541 1543 1546 1546 1548 1548 1548 1549 1549 1549 1549 1550 1550 1551 1551 1551 1553 1555 1556 1557
1535 1536 1537 1537 1538 1538 1539 1538 1538 1539 1538 1537 1537 1536 1536 1537 1537 1537 1537 1537 1537 1538 1539 1541 1541 1542 1545 1545 1546 1547 1547 1547 1547 1548 1548 1549 1549 1549 1548 1549 1549 1551 1553 1554 1556
1533 1534 1535 1536 1537 1537 1537 1538 1538 1537 1537 1536 1536 1536 1536 1538 1536 1536 1537 1538 1538 1539 1540 1541 1542 1542 1544 1545 1547 1547 1547 1547 1546 1547 1548 1548 1549 1548 1546 1547 1548 1549 1550 1552 1553
1529 1531 1532 1533 1534 1535 1536 1536 1536 1536 1536 1536 1535 1535 1536 1536 1535 1535 1536 1536 1538 1539 1540 1541 1542 1544 1545 1546 1547 1547 1549 1547 1544 1545 1546 1547 1549 1545 1544 1544 1545 1546 1548 1549 1550
1527 1528 1529 1531 1532 1532 1533 1534 1534 1534 1535 1535 1535 1535 1533 1532 1532 1533 1534 1535 1537 1539 1540 1541 1542 1544 1545 1548 1548 1550 1552 1556 1543 1543 1544 1547 1552 1538 1540 1541 1542 1543 1545 1546 1546
1524 1525 1525 1527 1529 1529 1530 1531 1531 1532 1532 1533 1534 1534 1532 1528 1529 1530 1533 1534 1536 1538 1539 1541 1542 1544 1547 1552 1559 1557 1561 1559 1550 1542 1543 1546 1545 1536 1536 1538 1539 1540 1541 1541 1542
1521 1522 1523 1524 1525 1526 1528 1529 1528 1529 1530 1532 1532 1536 1529 1527 1527 1528 1530 1533 1535 1536 1539 1541 1542 1546 1550 1555 1568 1561 1560 1555 1551 1544 1544 1546 1542 1536 1536 1536 1534 1536 1536 1536 1536
1517 1518 1521 1522 1522 1523 1526 1528 1530 1529 1526 1525 1524 1524 1523 1525 1527 1528 1530 1531 1534 1536 1540 1540 1547 1551 1544 1543 1543 1546 1551 1548 1544 1539 1543 1543 1539 1533 1532 1534 1532 1531 1530 1529 1529
1512 1515 1518 1519 1520 1521 1522 1525 1525 1526 1523 1520 1521 1521 1521 1522 1524 1526 1530 1532 1532 1536 1538 1545 1546 1534 1538 1541 1543 1546 1549 1552 1544 1538 1543 1538 1537 1529 1527 1525 1522 1521 1520 1519 1522
1507 1511 1513 1515 1516 1518 1519 1522 1523 1523 1523 1513 1512 1511 1516 1518 1518 1519 1525 1527 1529 1534 1536 1540 1531 1527 1535 1540 1545 1544 1548 1547 1544 1539 1539 1539 1537 1529 1516 1514 1512 1511 1508 1509 1508
1502 1505 1508 1507 1514 1512 1514 1520 1520 1523 1527 1510 1504 1500 1504 1511 1512 1514 1517 1521 1526 1529 1532 1533 1526 1528 1534 1536 1538 1545 1534 1536 1538 1543 1553 1539 1539 1525 1515 1510 1505 1498 1498 1497 1499
1497 1500 1502 1504 1505 1507 1512 1517 1520 1522 1543 1498 1497 1497 1498 1505 1504 1507 1512 1514 1518 1522 1526 1522 1523 1527 1529 1527 1530 1534 1531 1535 1536 1543 1544 1543 1553 1519 1510 1510 1499 1488 1487 1488 1489
1493 1495 1499 1497 1499 1504 1507 1514 1518 1529 1524 1495 1495 1496 1499 1500 1502 1506 1510 1513 1515 1519 1519 1519 1518 1519 1518 1522 1524 1528 1535 1541 1547 1550 1555 1535 1540 1516 1508 1495 1487 1478 1479 1480 1480
1487 1490 1493 1493 1494 1501 1505 1508 1527 1523 1501 1494 1495 1495 1497 1501 1503 1504 1507 1511 1514 1525 1521 1520 1518 1516 1517 1523 1526 1529 1538 1559 1562 1566 1540 1530 1536 1492 1488 1483 1478 1472 1472 1473 1473
1483 1484 1486 1487 1491 1497 1498 1506 1517 1498 1488 1484 1490 1495 1498 1497 1501 1504 1507 1510 1506 1507 1517 1519 1523 1512 1510 1510 1521 1529 1530 1548 1554 1554 1540 1531 1522 1492 1477 1472 1472 1470 1467 1468 1470
1477 1477 1477 1479 1485 1489 1492 1497 1476 1483 1481 1482 1489 1495 1500 1496 1497 1501 1505 1502 1496 1500 1505 1517 1513 1502 1503 1504 1508 1527 1528 1521 1534 1572 1556 1518 1496 1482 1475 1471 1466 1463 1464 1465 1467
1472 1473 1468 1472 1480 1481 1480 1474 1469 1466 1471 1470 1476 1482 1491 1496 1496 1500 1501 1487 1489 1487 1489 1494 1506 1504 1504 1505 1507 1508 1511 1533 1544 1549 1548 1511 1504 1482 1472 1471 1463 1460 1458 1460 1464
1470 1469 1459 1465 1473 1469 1462 1468 1460 1459 1463 1466 1467 1472 1473 1486 1485 1489 1483 1477 1478 1483 1486 1489 1495 1507 1503 1504 1503 1510 1511 1511 1516 1528 1527 1525 1484 1461 1456 1456 1457 1453 1452 1455 1458
1466 1462 1456 1457 1463 1454 1450 1449 1452 1454 1460 1460 1461 1459 1463 1470 1476 1481 1474 1469 1468 1472 1485 1482 1489 1505 1500 1494 1494 1493 1494 1500 1511 1516 1516 1507 1451 1449 1449 1451 1452 1450 1450 1451 1454
1457 1452 1452 1452 1443 1446 1443 1443 1444 1448 1449 1454 1454 1455 1456 1462 1470 1465 1466 1461 1464 1466 1473 1478 1490 1506 1498 1499 1495 1495 1492 1485 1492 1503 1482 1498 1444 1448 1445 1448 1447 1447 1446 1448 1451
1455 1446 1443 1442 1438 1436 1438 1433 1436 1437 1441 1448 1444 1451 1455 1456 1457 1457 1461 1460 1460 1461 1460 1464 1477 1478 1470 1463 1476 1488 1484 1483 1483 1485 1467 1459 1436 1446 1444 1445 1442 1443 1444 1445 1447
1447 1436 1431 1428 1431 1428 1431 1423 1428 1431 1433 1439 1442 1440 1445 1447 1453 1452 1452 1457 1456 1454 1456 1458 1470 1466 1453 1461 1464 1465 1464 1470 1470 1450 1469 1421 1446 1423 1437 1440 1436 1439 1440 1441 1442
1437 1433 1428 1422 1422 1422 1421 1417 1426 1418 1424 1427 1428 1429 1430 1432 1432 1432 1438 1443 1446 1450 1450 1454 1457 1462 1458 1453 1462 1462 1463 1452 1452 1448 1453 1436 1429 1430 1430 1432 1432 1433 1434 1434 1435
1426 1425 1425 1415 1416 1419 1415 1410 1409 1417 1420 1420 1421 1422 1421 1424 1423 1423 1432 1433 1434 1439 1445 1452 1453 1460 1451 1450 1464 1466 1418 1446 1445 1440 1442 1443 1399 1427 1425 1424 1422 1422 1424 1426 1428
Wind_Speed
8 7 5 3 3 3 2 2 2 1 2 2 3 3 3 3 2 1 1 1 2 3 4 5 5 6 7 6 5 3 4 1 0 6 4 8 4 5 7 10 5 5 9 9 23
4 5 4 4 2 2 2 1 1 1 2 2 3 3 3 3 1 1 0 1 2 4 4 4 5 6 4 3 3 4 4 4 2 3 5 11 7 9 6 8 4 8 12 19 22
4 3 2 2 2 2 1 0 1 2 3 3 4 4 3 3 3 1 2 1 4 5 5 5 5 5 4 3 2 3 4 3 1 0 6 7 5 7 10 3 10 15 19 22 23
6 5 4 3 3 3 2 2 1 2 3 3 4 4 3 1 2 2 4 3 4 6 7 8 6 3 3 2 2 3 1 3 3 1 5 7 6 5 8 5 10 12 18 22 23
10 8 8 7 6 5 5 4 3 4 4 4 4 3 2 1 3 2 1 3 6 8 9 8 5 4 4 2 2 2 1 2 3 3 5 4 5 4 7 10 9 15 21 20 21
13 12 11 10 9 8 7 6 6 5 5 5 5 3 3 3 4 4 3 4 5 7 8 6 4 5 4 2 3 3 1 4 5 5 5 5 3 4 7 14 15 20 21 21 21
15 15 14 13 12 11 9 8 8 7 7 6 5 5 6 8 6 6 5 5 6 6 7 5 3 2 4 2 1 1 3 4 7 6 4 5 5 9 14 20 22 23 22 22 22
14 16 15 16 15 13 12 10 10 8 8 8 7 7 6 8 10 11 9 8 8 9 7 5 4 4 2 4 3 2 3 2 3 9 4 6 7 4 12 25 25 25 24 24 25
13 13 14 16 17 16 14 12 12 10 9 8 8 6 6 9 13 11 10 8 9 9 8 5 6 3 4 5 4 4 3 4 7 8 4 5 6 4 7 27 27 27 26 27 26
17 14 13 14 16 17 15 13 12 11 11 10 11 5 12 6 8 11 12 9 7 10 7 5 3 3 3 4 5 6 4 5 5 4 2 3 11 6 9 22 27 28 28 30 31
15 18 14 12 14 17 14 11 9 6 11 10 6 6 3 10 9 10 13 13 10 7 5 3 4 7 12 10 5 4 4 4 3 4 5 8 9 11 18 21 25 27 32 35 35
17 19 17 15 14 14 14 8 8 4 8 15 20 17 11 10 8 13 19 11 8 5 6 4 8 11 6 5 6 4 4 7 6 4 6 7 11 10 9 15 31 36 37 40 38
20 22 19 17 17 15 16 15 12 7 5 10 23 25 27 24 14 20 26 11 5 7 9 8 6 6 8 5 6 6 7 5 8 1 3 3 7 10 11 23 31 35 41 41 46
20 19 17 20 17 20 17 15 13 4 2 6 8 11 26 18 10 21 29 12 5 12 7 6 7 5 5 6 8 7 7 6 4 2 5 3 8 5 6 11 10 33 36 44 43
20 21 18 26 16 17 15 15 11 8 4 4 4 5 15 15 12 12 31 14 9 8 7 9 7 9 7 7 9 7 4 4 2 3 2 3 4 6 4 8 15 28 31 39 41
19 20 20 24 28 18 13 17 18 1 11 3 3 3 7 4 3 6 12 5 5 5 3 4 1 6 7 3 6 5 5 6 4 3 4 9 8 5 7 12 8 15 21 29 36
16 19 19 23 33 24 17 30 4 6 5 5 4 5 2 4 3 4 7 8 8 6 10 2 4 2 4 5 3 4 7 2 3 1 8 2 5 14 9 10 11 15 23 16 27
16 17 23 25 29 25 36 3 6 7 8 5 4 3 5 6 3 5 7 7 8 2 3 9 7 12 7 10 8 8 8 6 7 5 5 1 7 6 13 22 16 28 30 22 21
18 19 25 31 30 29 25 5 11 10 7 9 5 5 5 4 6 4 6 6 8 11 11 7 6 1 1 4 11 6 8 4 1 1 1 6 8 7 10 10 16 25 18 18 23
15 17 29 27 27 37 9 14 9 10 8 8 15 8 11 7 8 9 10 6 6 15 6 6 2 1 2 4 3 6 8 2 2 2 6 6 6 8 5 12 14 13 18 19 23
14 7 18 25 25 26 9 9 8 9 8 11 18 14 12 10 9 7 8 3 9 9 25 4 4 1 4 7 11 3 5 4 5 5 5 2 7 7 13 12 12 14 29 27 25
14 6 11 22 18 7 16 13 16 9 17 4 3 17 13 11 10 10 16 8 18 15 12 9 3 5 9 3 2 1 4 7 5 6 6 3 18 5 5 6 11 18 21 23 27
11 19 16 26 12 17 8 19 19 9 16 9 10 8 5 10 6 12 8 10 19 12 11 9 4 2 5 4 2 6 8 16 2 3 15 5 13 3 6 5 11 17 17 20 24
11 4 19 25 32 18 24 16 28 25 17 18 14 7 12 13 8 5 7 7 23 19 21 21 6 11 16 6 7 7 10 12 18 10 10 20 21 6 5 7 8 14 16 18 22
17 6 9 6 15 19 22 14 28 18 22 28 13 21 23 14 17 25 22 7 7 14 13 14 13 18 25 7 5 5 15 22 24 33 11 34 20 24 13 10 19 22 19 19 23
11 11 10 17 9 8 23 17 6 24 19 18 21 25 23 24 22 21 20 16 14 4 12 3 15 18 23 19 9 11 11 25 29 30 26 32 31 4 9 17 14 28 31 27 30
30 34 14 15 11 10 5 12 20 22 13 22 25 24 24 26 33 32 8 16 8 17 14 8 13 11 19 14 4 6 39 12 15 21 19 23 39 6 13 14 25 31 32 35 37
Wind_Direction
156 155 154 157 150 140 135 127 115 99 78 50 37 24 21 13 6 102 131 159 139 148 138 120 100 94 83 74 77 94 64 95 242 160 214 180 133 143 144 139 130 148 160 171 180
173 169 166 165 161 154 144 131 36 27 11 17 14 10 6 358 350 119 269 211 184 166 156 147 111 101 83 69 63 81 98 195 198 201 211 175 166 149 152 139 115 132 146 158 180
219 209 211 216 195 187 205 243 337 342 349 350 354 355 350 359 121 46 54 145 172 171 160 157 125 107 85 74 58 119 159 193 225 17 177 168 181 174 146 224 199 189 172 173 182
243 255 257 251 263 278 275 274 294 311 323 334 341 343 345 1 162 100 65 82 143 155 151 146 140 103 90 92 88 98 158 174 161 162 149 162 161 177 191 216 212 218 188 183 191
239 245 259 267 276 283 293 304 307 306 313 324 327 336 338 275 211 199 88 94 129 146 149 143 124 107 112 136 102 113 247 251 198 175 189 174 193 193 224 217 209 184 187 192 196
241 246 249 260 268 276 290 302 308 307 310 318 319 318 300 263 204 197 184 170 154 157 154 155 126 104 107 127 149 175 237 255 240 220 205 201 223 206 232 195 184 185 192 198 201
244 246 251 252 260 270 278 288 297 305 308 309 310 304 278 256 210 183 171 182 193 192 179 168 140 144 134 109 127 342 313 320 231 207 221 193 282 234 224 194 192 196 201 203 205
251 247 249 256 257 257 266 277 284 293 301 301 300 297 261 243 224 228 228 220 207 208 205 196 188 145 140 126 42 34 50 353 286 162 200 155 262 249 210 199 203 204 207 210 214
261 256 251 251 258 260 259 265 275 282 286 288 287 274 260 239 229 219 213 211 205 203 201 183 165 133 128 91 13 355 234 217 313 201 135 172 258 268 222 199 208 211 214 217 219
266 261 264 257 252 256 261 266 272 275 270 270 250 268 239 229 214 206 200 189 182 180 159 159 127 80 53 105 222 206 224 244 233 221 203 206 257 257 205 200 215 218 223 225 227
255 265 265 268 260 250 252 263 281 269 231 218 209 202 239 208 193 193 183 173 162 166 150 161 115 202 202 200 176 163 194 236 253 231 169 233 255 259 230 226 234 234 231 231 233
246 257 252 262 264 257 242 225 217 258 295 251 242 232 225 205 188 192 181 176 172 171 128 55 230 224 195 209 215 232 254 259 272 247 185 258 253 261 238 233 238 241 242 238 232
240 242 235 245 254 251 245 231 234 250 265 260 243 235 224 220 214 194 183 187 166 150 190 174 217 164 168 184 198 228 211 233 232 14 253 307 264 245 256 244 247 249 251 250 237
241 241 250 219 231 237 240 224 220 226 311 263 215 227 212 201 225 210 197 178 186 192 173 227 234 170 169 199 175 240 202 195 201 139 243 152 282 270 250 254 234 250 249 247 239
246 238 250 239 228 223 230 206 185 150 298 244 178 185 174 175 139 184 192 198 174 182 145 227 182 191 194 192 169 229 161 190 191 186 351 230 293 256 244 260 257 255 251 250 242
247 244 239 243 230 232 200 175 145 235 230 253 118 158 138 169 116 118 176 176 162 149 259 227 208 170 199 117 172 136 81 47 50 77 263 226 197 197 210 227 255 260 261 254 245
258 243 234 246 223 224 180 151 104 179 310 206 176 175 175 153 122 146 160 174 168 155 221 123 218 203 162 97 49 107 103 290 315 332 243 334 232 250 260 239 226 256 275 266 238
257 248 235 234 236 221 162 139 206 218 198 104 121 81 192 149 193 161 132 193 243 174 123 188 258 170 188 189 170 201 165 167 220 214 257 344 237 249 234 259 263 259 269 270 236
259 260 246 231 232 207 165 206 201 184 194 155 115 131 232 212 156 140 207 217 202 186 191 176 265 122 137 151 161 203 211 176 61 82 6 223 276 287 252 277 271 261 265 250 229
277 269 249 235 225 202 196 228 212 179 170 167 204 171 184 204 169 178 171 202 219 196 190 209 263 19 198 115 26 167 161 89 24 244 250 262 258 229 219 238 252 266 248 235 227
270 262 261 238 216 204 205 226 225 218 189 176 211 202 200 175 201 201 207 224 196 196 195 172 195 222 128 207 174 152 192 185 147 166 211 283 254 218 210 216 225 240 254 246 230
245 234 248 200 194 235 221 206 201 184 224 232 239 211 191 179 189 204 207 209 192 149 183 204 174 203 201 218 238 303 249 177 154 215 239 220 256 187 195 227 221 256 264 260 244
244 243 249 207 218 222 224 229 225 178 207 185 217 215 163 181 206 212 202 205 186 165 167 164 210 16 323 351 345 217 213 207 74 67 231 187 252 228 182 247 242 248 259 261 246
246 251 225 227 240 229 222 229 224 213 208 215 213 178 211 231 220 245 221 201 204 208 196 168 162 206 233 230 144 201 199 202 209 232 225 238 259 204 205 219 243 242 252 255 249
232 242 232 200 231 233 244 245 225 224 210 205 232 211 222 214 218 234 240 195 223 224 198 175 216 224 242 237 196 213 207 204 209 227 204 253 245 250 234 220 240 252 251 237 234
238 227 246 244 273 229 242 234 238 234 210 213 219 216 218 219 211 224 215 206 210 183 197 211 228 229 255 241 206 233 224 221 214 227 231 252 261 175 228 249 241 241 244 234 237
228 247 267 245 230 249 233 253 238 240 264 256 232 223 224 227 229 238 245 230 225 210 196 172 215 217 238 228 176 262 240 190 214 225 222 239 249 192 256 245 244 248 243 243 249